| time (UTC) | temp F | wind direction | speed MPH | gust MPH | rain 1hr in | rain 24hr in | rain mn in | humidity % | barometer mb |
| 20260504081912 | 52 | 319 | 2.0 | 5.0 | 0.00 | 0.00 | 0.00 | 94 | 1018.0 |
| 20260504080911 | 51 | 138 | 4.0 | 4.0 | 0.00 | 0.00 | 0.00 | 94 | 1019.0 |
| 20260504045858 | 52 | 96 | 4.0 | 4.0 | 0.00 | 0.00 | 0.00 | 97 | 1020.0 |
| 20260504044858 | 52 | 13 | 3.0 | 3.0 | 0.00 | 0.00 | 0.00 | 97 | 1020.0 |
| 20260504043857 | 52 | 13 | 3.0 | 3.0 | 0.00 | 0.00 | 0.00 | 97 | 1020.0 |
| 20260504042857 | 53 | 114 | 1.0 | 1.0 | 0.00 | 0.00 | 0.00 | 97 | 1020.0 |
| 20260504041856 | 54 | 34 | 3.0 | 5.0 | 0.00 | 0.00 | 0.00 | 97 | 1020.0 |
| 20260504040855 | 54 | 34 | 3.0 | 5.0 | 0.00 | 0.00 | 0.00 | 97 | 1020.0 |
| 20260504035855 | 54 | 34 | 3.0 | 5.0 | 0.00 | 0.00 | 0.00 | 97 | 1020.0 |
| 20260504034854 | 54 | 34 | 3.0 | 5.0 | 0.00 | 0.00 | 0.00 | 97 | 1020.0 |
| 20260504033853 | 54 | 34 | 3.0 | 5.0 | 0.00 | 0.00 | 0.00 | 97 | 1020.0 |
| 20260504032853 | 55 | 84 | 4.0 | 4.0 | 0.00 | 0.00 | 0.00 | 97 | 1019.0 |
| 20260504031852 | 55 | 84 | 4.0 | 4.0 | 0.00 | 0.00 | 0.00 | 97 | 1019.0 |
| 20260504030851 | 55 | 54 | 1.0 | 1.0 | 0.00 | 0.00 | 0.00 | 97 | 1019.0 |
| 20260504025850 | 55 | 54 | 1.0 | 1.0 | 0.00 | 0.00 | 0.00 | 97 | 1019.0 |
| 20260504024850 | 54 | 28 | 3.0 | 3.0 | 0.00 | 0.00 | 0.00 | 97 | 1019.0 |
| 20260504023849 | 54 | 28 | 3.0 | 3.0 | 0.00 | 0.00 | 0.00 | 97 | 1019.0 |
| 20260504022849 | 54 | 49 | 1.0 | 3.0 | 0.00 | 0.00 | 0.00 | 97 | 1019.0 |
| 20260504021848 | 53 | 49 | 1.0 | 3.0 | 0.23 | 0.00 | 0.00 | 97 | 1019.0 |
| 20260504020847 | 53 | 49 | 1.0 | 3.0 | 0.23 | 0.00 | 0.00 | 97 | 1019.0 |
| 20260504015846 | 53 | 49 | 1.0 | 3.0 | 0.23 | 0.00 | 0.00 | 97 | 1019.0 |
| 20260504014846 | 54 | 66 | 1.0 | 1.0 | 0.23 | 0.00 | 0.00 | 97 | 1019.0 |
| 20260504013845 | 54 | 66 | 1.0 | 1.0 | 0.23 | 0.00 | 0.00 | 95 | 1018.0 |
| 20260504012845 | 56 | 342 | 4.0 | 4.0 | 0.04 | 0.00 | 0.00 | 90 | 1018.0 |
| 20260504011844 | 56 | 342 | 4.0 | 4.0 | 0.04 | 0.00 | 0.00 | 90 | 1018.0 |
| 20260504010843 | 56 | 342 | 4.0 | 4.0 | 0.04 | 0.00 | 0.00 | 90 | 1018.0 |
| 20260504005843 | 59 | 0 | 0.0 | 0.0 | 0.00 | 0.00 | 0.00 | 89 | 1018.0 |
| 20260504004842 | 58 | 318 | 1.0 | 1.0 | 0.00 | 0.00 | 0.00 | 89 | 1018.0 |
| 20260504003841 | 58 | 318 | 1.0 | 1.0 | 0.00 | 0.00 | 0.00 | 88 | 1017.0 |
| 20260504002841 | 58 | 239 | 1.0 | 1.0 | 0.00 | 0.00 | 0.00 | 86 | 1016.0 |
| 20260504001840 | 58 | 239 | 1.0 | 1.0 | 0.00 | 0.00 | 0.00 | 86 | 1016.0 |
| 20260504000840 | 60 | 240 | 1.0 | 1.0 | 0.01 | 0.00 | 0.00 | 86 | 1016.0 |
| 20260503235839 | 60 | 240 | 1.0 | 1.0 | 0.00 | 0.00 | 0.00 | 86 | 1016.0 |
| 20260503234838 | 60 | 300 | 5.0 | 5.0 | 0.00 | 0.00 | 0.00 | 84 | 1016.0 |
| 20260503233838 | 60 | 300 | 5.0 | 5.0 | 0.00 | 0.00 | 0.00 | 84 | 1016.0 |
| 20260503232837 | 64 | 18 | 8.0 | 8.0 | 0.01 | 0.00 | 0.00 | 68 | 1015.0 |
| 20260503231837 | 64 | 18 | 8.0 | 8.0 | 0.00 | 0.00 | 0.00 | 66 | 1015.0 |
| 20260503230836 | 67 | 60 | 1.0 | 1.0 | 0.00 | 0.00 | 0.00 | 58 | 1015.0 |
| 20260503225835 | 67 | 60 | 1.0 | 1.0 | 0.00 | 0.00 | 0.00 | 58 | 1015.0 |
| 20260503224835 | 68 | 78 | 5.0 | 5.0 | 0.00 | 0.00 | 0.00 | 54 | 1015.0 |
| 20260503223834 | 68 | 78 | 5.0 | 5.0 | 0.00 | 0.00 | 0.00 | 54 | 1015.0 |
| 20260503222833 | 68 | 0 | 0.0 | 0.0 | 0.00 | 0.00 | 0.00 | 60 | 1015.0 |
| 20260503221833 | 68 | 0 | 0.0 | 0.0 | 0.00 | 0.00 | 0.00 | 60 | 1015.0 |
| 20260503220832 | 68 | 0 | 0.0 | 0.0 | 0.00 | 0.00 | 0.00 | 60 | 1015.0 |
| 20260503215831 | 70 | 360 | 9.0 | 0.0 | 0.00 | 0.00 | 0.00 | 46 | 1015.0 |
| 20260503214831 | 71 | 360 | 9.0 | 0.0 | 0.01 | 0.00 | 0.00 | 45 | 1015.0 |
| 20260503213830 | 71 | 360 | 9.0 | 0.0 | 0.01 | 0.00 | 0.00 | 45 | 1015.0 |
| 20260503212829 | 70 | 360 | 9.0 | 0.0 | 0.01 | 0.00 | 0.00 | 46 | 1015.0 |
| 20260503211829 | 70 | 360 | 9.0 | 0.0 | 0.01 | 0.00 | 0.00 | 46 | 1015.0 |
| 20260503210828 | 70 | 90 | 5.0 | 7.0 | 0.01 | 0.00 | 0.00 | 49 | 1015.0 |
| 20260503205827 | 70 | 360 | 6.0 | 0.0 | 0.01 | 0.00 | 0.00 | 49 | 1015.0 |
| 20260503204826 | 71 | 360 | 6.0 | 0.0 | 0.01 | 0.00 | 0.00 | 47 | 1015.0 |
| 20260503203826 | 71 | 360 | 6.0 | 0.0 | 0.01 | 0.00 | 0.00 | 47 | 1015.0 |
| 20260503202825 | 70 | 360 | 6.0 | 0.0 | 0.01 | 0.00 | 0.00 | 50 | 1015.0 |
| 20260503201824 | 70 | 360 | 6.0 | 0.0 | 0.01 | 0.00 | 0.00 | 50 | 1015.0 |
| 20260503200824 | 69 | 360 | 6.0 | 0.0 | 0.01 | 0.00 | 0.00 | 53 | 1015.0 |
| 20260503195823 | 69 | 360 | 11.0 | 0.0 | 0.01 | 0.00 | 0.00 | 53 | 1015.0 |
| 20260503194822 | 67 | 90 | 5.0 | 7.0 | 0.01 | 0.00 | 0.00 | 59 | 1015.0 |
| 20260503193822 | 67 | 90 | 5.0 | 7.0 | 0.01 | 0.00 | 0.00 | 59 | 1015.0 |
| 20260503192821 | 67 | 90 | 5.0 | 7.0 | 0.00 | 0.00 | 0.00 | 59 | 1016.0 |
| 20260503191820 | 67 | 108 | 3.0 | 3.0 | 0.00 | 0.00 | 0.00 | 59 | 1016.0 |
| 20260503190820 | 67 | 318 | 4.0 | 4.0 | 0.00 | 0.00 | 0.00 | 60 | 1016.0 |
| 20260503185819 | 67 | 140 | 11.0 | 0.0 | 0.00 | 0.00 | 0.00 | 58 | 1016.0 |
| 20260503184818 | 67 | 140 | 11.0 | 0.0 | 0.00 | 0.00 | 0.00 | 59 | 1016.0 |
| 20260503183818 | 66 | 140 | 11.0 | 0.0 | 0.00 | 0.00 | 0.00 | 61 | 1016.0 |
| 20260503182817 | 66 | 140 | 11.0 | 0.0 | 0.00 | 0.00 | 0.00 | 61 | 1016.0 |
| 20260503181816 | 67 | 140 | 11.0 | 0.0 | 0.00 | 0.00 | 0.00 | 60 | 1016.0 |
| 20260503180816 | 67 | 140 | 11.0 | 0.0 | 0.00 | 0.00 | 0.00 | 58 | 1016.0 |
| 20260503175815 | 70 | 0 | 0.0 | 0.0 | 0.00 | 0.00 | 0.00 | 50 | 1016.0 |
| 20260503174814 | 69 | 0 | 0.0 | 0.0 | 0.00 | 0.00 | 0.00 | 54 | 1016.0 |
| 20260503173813 | 67 | 312 | 13.0 | 14.0 | 0.00 | 0.00 | 0.00 | 61 | 1016.0 |
| 20260503172813 | 67 | 312 | 13.0 | 14.0 | 0.00 | 0.00 | 0.00 | 60 | 1017.0 |
| 20260503171812 | 67 | 329 | 11.0 | 13.0 | 0.00 | 0.00 | 0.00 | 56 | 1017.0 |
| 20260503170811 | 67 | 329 | 11.0 | 13.0 | 0.00 | 0.00 | 0.00 | 57 | 1017.0 |
| 20260503150803 | 64 | 342 | 1.0 | 1.0 | 0.00 | 0.00 | 0.00 | 69 | 1017.0 |
| 20260503130755 | 57 | 48 | 4.0 | 5.0 | 0.00 | 0.00 | 0.00 | 83 | 1018.0 |
| 20260503110747 | 57 | 324 | 5.0 | 5.0 | 0.00 | 0.00 | 0.00 | 91 | 1019.0 |